Nellis AFB, NV

8:12 PM PST on December 06, 2019 (GMT -0800)
Nellis Air Force Base

Weather History for KLSV - September, 2019

Change the Weather History Date:

Friday, September 13, 2019

  Actual Average Record
Temperature  
Mean Temperature 82 °F -  
Max Temperature 97 °F 93 °F 104 °F (1997)
Min Temperature 67 °F 68 °F 57 °F (2005)
Cooling Degree Days 17    
Growing Degree Days 32 (Base 50)    
Moisture  
Dew Point 26 °F    
Average Humidity 13    
Maximum Humidity 20    
Minimum Humidity 8    
Precipitation  
Precipitation 0.00 in - - ()
Sea Level Pressure  
Sea Level Pressure 29.96 in    
Wind  
Wind Speed 3 mph (NNE)    
Max Wind Speed 13 mph    
Max Gust Speed -    
Visibility 10 miles    
Events      
Averages and records for this station are not official NWS values.
T = Trace of Precipitation, MM = Missing Value Source: NWS Daily Summary

Daily Weather History Graph

Daily Weather History Graph

Search for Another Location

Airport or City:

Astronomy

Sep. 13, 2019 Rise Set
Actual Time 6:20 AM PDT 6:50 PM PDT
Civil Twilight 5:55 AM PDT 7:16 PM PDT
Nautical Twilight 5:24 AM PDT 7:46 PM PDT
Astronomical Twilight 4:53 AM PDT 8:17 PM PDT
Moon 7:04 PM PDT (9/13) 5:44 AM PDT (9/13)
Length of Visible Light 13h 21m
Length of Day
12h 29m
Full, 100% of the Moon is Illuminated
Sep 13
Full
Sep 13
Full
Sep 21
Last Quarter
Sep 28
New
Oct 5
First Quarter

Hourly Weather History & Observations

Time (PDT) Temp. Dew Point Humidity Pressure Visibility Wind Dir Wind Speed Gust Speed Precip Events Conditions
12:59 AM 72.7 °F 26.8 °F 18% 29.97 in 10.0 mi NNE 8.1 mph - N/A   Clear
1:58 AM 73.9 °F 26.4 °F 17% 29.97 in 10.0 mi Calm Calm - N/A   Clear
2:58 AM 72.9 °F 26.8 °F 18% 29.97 in 10.0 mi WSW 3.5 mph - N/A   Clear
3:58 AM 72.7 °F 26.8 °F 18% 29.98 in 10.0 mi Calm Calm - N/A   Clear
4:58 AM 68.0 °F - N/A% 29.98 in - North - - N/A   Unknown
5:55 AM 67.6 °F 22.6 °F 18% 29.96 in 10.0 mi Variable 1.2 mph - N/A   Clear
7:02 AM 67.5 °F 25.0 °F 20% 29.98 in 10.0 mi Calm Calm - N/A   Partly Cloudy
7:58 AM 70.0 °F 25.9 °F 19% 30.08 in 10.0 mi Calm Calm - N/A   Clear
8:58 AM 77.7 °F 27.9 °F 16% 30.03 in 10.0 mi Calm Calm - N/A   Clear
9:58 AM 85.8 °F 29.3 °F 13% 30.08 in 10.0 mi SSW 3.5 mph - N/A   Clear
10:58 AM 90.0 °F 28.4 °F 11% 30.07 in 10.0 mi Calm Calm - N/A   Clear
11:58 AM 92.5 °F 28.0 °F 10% 30.05 in 10.0 mi NE 12.7 mph - N/A   Clear
12:58 PM 93.9 °F 26.4 °F 9% 29.96 in 10.0 mi NE 6.9 mph - N/A   Scattered Clouds
1:58 PM 95.7 °F 27.9 °F 9% 29.92 in 10.0 mi North 9.2 mph - N/A   Clear
2:58 PM 97.9 °F 26.6 °F 8% 29.89 in 10.0 mi NNW 5.8 mph - N/A   Clear
3:58 PM 97.2 °F 26.1 °F 8% 29.87 in 10.0 mi Calm Calm - N/A   Clear
4:58 PM 97.0 °F 25.9 °F 8% 29.93 in 10.0 mi Calm Calm - N/A   Clear
5:58 PM 95.9 °F 25.2 °F 8% 29.92 in 10.0 mi South 5.8 mph - N/A   Clear
7:58 PM 89.1 °F 25.3 °F 10% 29.87 in 10.0 mi Calm Calm - N/A   Clear
8:58 PM 81.0 °F 23.5 °F 12% 29.88 in 10.0 mi NNE 4.6 mph - N/A   Clear
9:58 PM 81.9 °F 24.3 °F 12% 29.89 in 10.0 mi Calm Calm - N/A   Clear
10:58 PM 76.5 °F 23.7 °F 14% 29.89 in 10.0 mi East 3.5 mph - N/A   Clear
11:58 PM 75.6 °F 23.0 °F 14% 29.89 in 10.0 mi Calm Calm - N/A   Clear